TimeCDT,TemperatureF,Dew PointF,Humidity,Sea Level PressureIn,VisibilityMPH,Wind Direction,Wind SpeedMPH,Gust SpeedMPH,PrecipitationIn,Events,Conditions,WindDirDegrees,DateUTC
12:53 AM,68.0,62.1,81,30.03,10.0,Calm,Calm,-,N/A,,Clear,0,2013-07-25 05:53:00
1:53 AM,68.0,62.1,81,30.04,10.0,Calm,Calm,-,N/A,,Clear,0,2013-07-25 06:53:00
2:53 AM,64.9,62.1,90,30.03,10.0,ESE,4.6,-,N/A,,Scattered Clouds,110,2013-07-25 07:53:00
3:53 AM,66.0,62.1,87,30.03,10.0,Calm,Calm,-,N/A,,Mostly Cloudy,0,2013-07-25 08:53:00
4:53 AM,66.0,62.1,87,30.02,10.0,Calm,Calm,-,N/A,,Mostly Cloudy,0,2013-07-25 09:53:00
5:53 AM,64.9,62.1,90,30.02,10.0,Calm,Calm,-,N/A,,Mostly Cloudy,0,2013-07-25 10:53:00
6:53 AM,64.9,62.1,90,30.04,10.0,Calm,Calm,-,N/A,,Clear,0,2013-07-25 11:53:00
7:53 AM,69.1,63.0,81,30.05,10.0,South,4.6,-,N/A,,Mostly Cloudy,170,2013-07-25 12:53:00
8:53 AM,72.0,64.0,76,30.05,10.0,SSE,4.6,-,N/A,,Mostly Cloudy,150,2013-07-25 13:53:00
9:53 AM,75.9,64.0,67,30.06,10.0,South,5.8,-,N/A,,Scattered Clouds,180,2013-07-25 14:53:00
10:53 AM,77.0,64.0,64,30.05,10.0,South,6.9,-,N/A,,Overcast,190,2013-07-25 15:53:00
11:53 AM,79.0,64.9,62,30.04,10.0,SSW,6.9,-,N/A,,Mostly Cloudy,200,2013-07-25 16:53:00
12:53 PM,79.0,68.0,69,30.03,10.0,SSE,5.8,-,N/A,,Mostly Cloudy,160,2013-07-25 17:53:00
1:53 PM,80.1,68.0,67,30.04,10.0,SSW,8.1,-,0.00,,Mostly Cloudy,200,2013-07-25 18:53:00
2:53 PM,75.9,70.0,82,30.05,10.0,SSW,9.2,-,0.00,Rain,Light Rain,200,2013-07-25 19:53:00
3:53 PM,73.9,69.1,85,30.05,10.0,SSW,9.2,-,0.01,Rain,Light Rain,200,2013-07-25 20:53:00
4:53 PM,73.0,68.0,84,30.05,10.0,South,10.4,-,0.00,,Overcast,190,2013-07-25 21:53:00
5:53 PM,71.1,68.0,90,30.01,10.0,SSE,12.7,-,0.01,Rain,Light Rain,160,2013-07-25 22:53:00
6:53 PM,73.0,66.9,81,30.00,10.0,SE,6.9,-,0.00,,Overcast,140,2013-07-25 23:53:00
7:53 PM,72.0,68.0,87,30.01,10.0,SSE,4.6,-,N/A,,Overcast,150,2013-07-26 00:53:00
8:53 PM,70.0,68.0,93,29.99,10.0,SSE,4.6,-,N/A,,Mostly Cloudy,150,2013-07-26 01:53:00
9:53 PM,69.1,66.9,93,29.99,10.0,SSE,4.6,-,N/A,,Clear,160,2013-07-26 02:53:00
10:53 PM,68.0,66.9,96,29.99,10.0,SE,3.5,-,N/A,,Mostly Cloudy,130,2013-07-26 03:53:00
11:53 PM,69.1,66.9,93,30.00,10.0,Calm,Calm,-,N/A,,Overcast,0,2013-07-26 04:53:00